STARLINK-4341, 53052

Orbit data source: Space-Track

STARLINK-4341, 53052 is a payload satellite owned by SpaceX/Seattle (US) in SSO that was launched on Mon, 11 Jul 2022 UTC via an FALCON 9 launch vehicle from the Air Force Western Test Range (AFWTR). Payload-class satellites include a variety of spacecraft equipped with specific instruments for various scientific and technological missions. These include communications satellites like Starlink; space stations such as the ISS; scientific satellites like the Hubble; Earth observation satellites from companies like Planet Labs, Umbra, and HawkEye 360; GPS; miniature CubeSats for education and research; and military/defense satellites.

Loading next visibility...
Identifier
53052, 2022-077K
Orbit
SSO
Country
Flag of USUS
Related business
Manufacturer
SpaceX/Seattle
Mission
Operational Commercial Communications
Bus & Motor
STARLINK, Unknown motor
Mass
297 kg wet, ~275 kg dry
Launch date (UTC)
2022-07-11 (3 years ago)
Launch vehicle
FALCON 9
Launch site
Air Force Western Test Range (AFWTR)
Object type
Payload
Rocket body
Debris
Shape & HBR
Box + 1 Pan, 10.1 m
Radar Cross Section
13.562 m², Large (>1 m²)

Expand to show TLE details & history
Last TLE update: 1 day ago

TLE from 1 day ago
0 STARLINK-4341
1 53052U 22077K   25348.44998291  .00000475  00000-0  41495-4 0  9994
2 53052  97.6027 166.7711 0001998  83.1708 276.9744 15.01255990188127
Epoch: 2025-12-14T10:47Z
TLE epoch observation values (Epoch: 2025-12-14T10:47:58.523Z)
Latitude
0.00001°
Longitude
-78.58548°
Altitude
565.913 km
Speed
7.578 km/s
True Right ascension
11h 07m 05s
True Declination
0° 00' 00"
Sunlit
Object was in daylight at epoch
Visualization orbit readout
Latitude
Unknown
Longitude
Unknown
Altitude
Unknown
Speed
Unknown
Apparent Right ascension
Unknown
Apparent Declination
Unknown
Sunlit
N/A
Visualization observer readout
Local Sidereal Time
15:09:08
Azimuth
Unknown
Elevation
Unknown
Doppler factor
Unknown
Orbital elements
Apogee altitude
561.408 km
Perigee altitude
558.635 km
Semi-major axis
6,938.159 km
Eccentricity
0.0002
Inclination
97.6027°
RAAN
166.7711°
Arg. of periapsis
83.1708°
True anomaly
276.95167°
Mean anomaly
276.9744°
Eccentric anomaly
276.96304°
Mean motion
3.75558 °/min
Orbital period
95.86 mins
BSTAR
0.000041495
Loading maneuver chart data...
Computing Atmospheric mass density...
Loading historical data...
Loading historical data...
Loading historical data...
Loading historical data...
Loading historical data...
Loading historical data...
Loading historical data...

Documentation

Showing up to 5 results
|